CZ-3C DEB, 40200

Orbit data source: Space-Track

CZ-3C DEB, 40200 is space debris in HEO originally from a launch on Fri, 24 Feb 2012 UTC launched from the Xichang Space Center, China (XSC). Debris objects in space refer to the collection of defunct objects orbiting the Earth. Examples of debris include non-operational satellites, rocket bodies, and fragments generated from explosions, collisions, or faulty payload assembly.

Not visible in the next 10 days
Identifier
40200, 2012-008K
Orbit
HEO
Country
Flag of CNCN / PRC
Related business
Manufacturer
CALT
Mission
Spacecraft
Bus & Motor
Unknown
Mass
Unknown
Launch date (UTC)
2012-02-24 (14 years ago)
Launch vehicle
Unknown
Launch site
Xichang Space Center, China (XSC)
Object type
Payload
Rocket body
Debris
Shape & HBR
Unknown shape, 0.1 m
Radar Cross Section
Medium (>0.1 m² and <1 m²)

Expand to show TLE details & history
Last TLE update: 10 hours ago

TLE from 10 hours ago
0 CZ-3C DEB
1 40200U 12008K   26036.94366129 -.00000125  00000-0  00000+0 0  9992
2 40200  20.9582 295.2494 6984309  60.5601 350.7809  2.19222533 95843
Epoch: 2026-02-05T22:38Z
TLE epoch observation values (Epoch: 2026-02-05T22:38:52.335Z)
Latitude
-0.00001°
Longitude
179.51949°
Altitude
3,143.623 km
Speed
8.234 km/s
True Right ascension
19h 41m 18s
True Declination
0° 00' 00"
Sunlit
Object was in daylight at epoch
Visualization orbit readout
Latitude
Unknown
Longitude
Unknown
Altitude
Unknown
Speed
Unknown
Apparent Right ascension
Unknown
Apparent Declination
Unknown
Sunlit
N/A
Visualization observer readout
Local Sidereal Time
10:19:46
Azimuth
Unknown
Elevation
Unknown
Doppler factor
Unknown
Orbital elements
Apogee altitude
36,141.919 km
Perigee altitude
1,171.617 km
Semi-major axis
25,034.905 km
Eccentricity
0.69843
Inclination
20.9582°
RAAN
295.2494°
Arg. of periapsis
60.5601°
True anomaly
298.74512°
Mean anomaly
350.7809°
Eccentric anomaly
331.98432°
Mean motion
0.54793 °/min
Orbital period
657.02 mins
BSTAR
0
Loading maneuver chart data...
Computing Atmospheric mass density...
Loading historical data...
Loading historical data...
Loading historical data...
Loading historical data...
Loading historical data...
Loading historical data...
Loading historical data...

Documentation

Showing up to 5 results
|